Simultaneous Nadir Overpasses (SNOs) Predictions

Prediction of SNOs between AQUA and METOP-C Satellite Orbit:

Table of predicted SNOs for the next 14.0 days since TLE Epoch: 8/15/2025
Index Date (AQUA) Time (AQUA) Lat,Lon (AQUA) SZA (AQUA ) Date (METOP-C) Time (METOP-C) Lat,Lon (METOP-C) SZA (METOP-C ) Distance(km) Time Diff (sec)
1 08/17/2025 01:06:56 -76.87, -13.14 116.59 08/17/2025 01:06:47 -76.84, -13.17 116.61 2.57 9
2 08/17/2025 01:56:16 76.93, 154.31 63.49 08/17/2025 01:57:25 76.92, 154.47 63.49 4.05 69
3 08/19/2025 13:05:36 76.85, -12.67 64.21 08/19/2025 13:05:03 76.84, -12.77 64.20 2.77 33
4 08/19/2025 13:54:54 -76.90, 154.83 115.73 08/19/2025 13:55:43 -76.92, 154.89 115.71 2.94 49
5 08/22/2025 01:04:14 -76.85, -12.26 114.96 08/22/2025 01:03:21 -76.83, -12.36 114.98 3.16 53
6 08/22/2025 01:53:34 76.91, 155.16 65.12 08/22/2025 01:53:59 76.91, 155.28 65.12 2.98 25
7 08/24/2025 13:02:51 76.76, -11.52 65.81 08/24/2025 13:01:40 76.68, -12.51 65.72 26.62 71
8 08/24/2025 13:52:11 -76.90, 155.65 114.05 08/24/2025 13:52:17 -76.90, 155.67 114.04 0.64 6
9 08/24/2025 14:41:41 77.42, -38.77 66.48 08/24/2025 14:42:44 77.45, -34.64 66.57 99.84 63
10 08/27/2025 01:50:48 76.89, 156.09 66.82 08/27/2025 01:50:32 76.88, 156.03 66.81 1.90 16
11 08/27/2025 02:40:06 -76.93, -36.38 113.13 08/27/2025 02:41:13 -76.92, -36.49 113.14 2.91 67
12 08/29/2025 13:49:24 -76.88, 156.55 112.31 08/29/2025 13:48:49 -76.90, 156.57 112.28 3.16 35



Historial Predications of SNOs between AQUA and METOP-C
